Year,Month,Day,Hour,Minute,Value (Times are PST for temperature in C)
2013,06,30,00,00,18.70
2013,06,30,00,01,18.70
2013,06,30,00,02,18.70
2013,06,30,00,03,18.70
2013,06,30,00,04,18.70
2013,06,30,00,05,18.70
2013,06,30,00,06,18.70
2013,06,30,00,07,18.60
2013,06,30,00,08,18.60
2013,06,30,00,09,18.60
2013,06,30,00,10,18.60
2013,06,30,00,11,18.60
2013,06,30,00,12,18.50
2013,06,30,00,13,18.50
2013,06,30,00,14,18.50
2013,06,30,00,15,18.50
2013,06,30,00,16,18.40
2013,06,30,00,17,18.40
2013,06,30,00,18,18.40
2013,06,30,00,19,18.40
2013,06,30,00,20,18.40
2013,06,30,00,21,18.30
2013,06,30,00,22,18.30
2013,06,30,00,23,18.30
2013,06,30,00,24,18.30
2013,06,30,00,25,18.30
2013,06,30,00,26,18.30
2013,06,30,00,27,18.30
2013,06,30,00,28,18.20
2013,06,30,00,29,18.20
2013,06,30,00,30,18.20
2013,06,30,00,31,18.20
2013,06,30,00,32,18.20
2013,06,30,00,33,18.20
2013,06,30,00,34,18.20
2013,06,30,00,35,18.20
2013,06,30,00,36,18.10
2013,06,30,00,37,18.10
2013,06,30,00,38,18.10
2013,06,30,00,39,18.10
2013,06,30,00,40,18.10
2013,06,30,00,41,18.10
2013,06,30,00,42,18.10
2013,06,30,00,43,18.10
2013,06,30,00,44,18.10
2013,06,30,00,45,18.10
2013,06,30,00,46,18.10
2013,06,30,00,47,18.00
2013,06,30,00,48,18.00
2013,06,30,00,49,18.00
2013,06,30,00,50,18.00
2013,06,30,00,51,18.00
2013,06,30,00,52,17.90
2013,06,30,00,53,17.90
2013,06,30,00,54,17.90
2013,06,30,00,55,17.90
2013,06,30,00,56,17.90
2013,06,30,00,57,17.80
2013,06,30,00,58,17.80
2013,06,30,00,59,17.80
2013,06,30,01,00,17.80
2013,06,30,01,01,17.80
2013,06,30,01,02,17.70
2013,06,30,01,03,17.70
2013,06,30,01,04,17.70
2013,06,30,01,05,17.70
2013,06,30,01,06,17.70
2013,06,30,01,07,17.70
2013,06,30,01,08,17.60
2013,06,30,01,09,17.60
2013,06,30,01,10,17.60
2013,06,30,01,11,17.60
2013,06,30,01,12,17.60
2013,06,30,01,13,17.60
2013,06,30,01,14,17.60
2013,06,30,01,15,17.60
2013,06,30,01,16,17.60
2013,06,30,01,17,17.60
2013,06,30,01,18,17.50
2013,06,30,01,19,17.50
2013,06,30,01,20,17.50
2013,06,30,01,21,17.50
2013,06,30,01,22,17.50
2013,06,30,01,23,17.50
2013,06,30,01,24,17.50
2013,06,30,01,25,17.50
2013,06,30,01,26,17.50
2013,06,30,01,27,17.50
2013,06,30,01,28,17.40
2013,06,30,01,29,17.50
2013,06,30,01,30,17.40
2013,06,30,01,31,17.40
2013,06,30,01,32,17.40
2013,06,30,01,33,17.40
2013,06,30,01,34,17.40
2013,06,30,01,35,17.40
2013,06,30,01,36,17.40
2013,06,30,01,37,17.40
2013,06,30,01,38,17.40
2013,06,30,01,39,17.40
2013,06,30,01,40,17.30
2013,06,30,01,41,17.30
2013,06,30,01,42,17.30
2013,06,30,01,43,17.30
2013,06,30,01,44,17.30
2013,06,30,01,45,17.30
2013,06,30,01,46,17.20
2013,06,30,01,47,17.20
2013,06,30,01,48,17.20
2013,06,30,01,49,17.20
2013,06,30,01,50,17.10
2013,06,30,01,51,17.10
2013,06,30,01,52,17.10
2013,06,30,01,53,17.10
2013,06,30,01,54,17.00
2013,06,30,01,55,17.00
2013,06,30,01,56,17.00
2013,06,30,01,57,16.90
2013,06,30,01,58,16.90
2013,06,30,01,59,16.90
2013,06,30,02,00,16.90
2013,06,30,02,01,16.90
2013,06,30,02,02,16.90
2013,06,30,02,03,16.90
2013,06,30,02,04,16.90
2013,06,30,02,05,16.90
2013,06,30,02,06,16.90
2013,06,30,02,07,16.90
2013,06,30,02,08,16.90
2013,06,30,02,09,16.90
2013,06,30,02,10,16.90
2013,06,30,02,11,16.90
2013,06,30,02,12,16.90
2013,06,30,02,13,16.90
2013,06,30,02,14,16.90
2013,06,30,02,15,16.90
2013,06,30,02,16,16.80
2013,06,30,02,17,16.80
2013,06,30,02,18,16.80
2013,06,30,02,19,16.80
2013,06,30,02,20,16.80
2013,06,30,02,21,16.80
2013,06,30,02,22,16.80
2013,06,30,02,23,16.80
2013,06,30,02,24,16.80
2013,06,30,02,25,16.80
2013,06,30,02,26,16.80
2013,06,30,02,27,16.80
2013,06,30,02,28,16.80
2013,06,30,02,29,16.80
2013,06,30,02,30,16.80
2013,06,30,02,31,16.80
2013,06,30,02,32,16.70
2013,06,30,02,33,16.70
2013,06,30,02,34,16.70
2013,06,30,02,35,16.70
2013,06,30,02,36,16.70
2013,06,30,02,37,16.70
2013,06,30,02,38,16.70
2013,06,30,02,39,16.60
2013,06,30,02,40,16.60
2013,06,30,02,41,16.60
2013,06,30,02,42,16.60
2013,06,30,02,43,16.60
2013,06,30,02,44,16.60
2013,06,30,02,45,16.60
2013,06,30,02,46,16.60
2013,06,30,02,47,16.60
2013,06,30,02,48,16.60
2013,06,30,02,49,16.60
2013,06,30,02,50,16.50
2013,06,30,02,51,16.50
2013,06,30,02,52,16.50
2013,06,30,02,53,16.50
2013,06,30,02,54,16.50
2013,06,30,02,55,16.50
2013,06,30,02,56,16.50
2013,06,30,02,57,16.50
2013,06,30,02,58,16.50
2013,06,30,02,59,16.40
2013,06,30,03,00,16.40
2013,06,30,03,01,16.40
2013,06,30,03,02,16.40
2013,06,30,03,03,16.40
2013,06,30,03,04,16.40
2013,06,30,03,05,16.40
2013,06,30,03,06,16.40
2013,06,30,03,07,16.40
2013,06,30,03,08,16.40
2013,06,30,03,09,16.40
2013,06,30,03,10,16.40
2013,06,30,03,11,16.40
2013,06,30,03,12,16.40
2013,06,30,03,13,16.40
2013,06,30,03,14,16.40
2013,06,30,03,15,16.40
2013,06,30,03,16,16.40
2013,06,30,03,17,16.40
2013,06,30,03,18,16.40
2013,06,30,03,19,16.40
2013,06,30,03,20,16.40
2013,06,30,03,21,16.40
2013,06,30,03,22,16.40
2013,06,30,03,23,16.40
2013,06,30,03,24,16.30
2013,06,30,03,25,16.30
2013,06,30,03,26,16.30
2013,06,30,03,27,16.30
2013,06,30,03,28,16.30
2013,06,30,03,29,16.30
2013,06,30,03,30,16.30
2013,06,30,03,31,16.30
2013,06,30,03,32,16.30
2013,06,30,03,33,16.30
2013,06,30,03,34,16.30
2013,06,30,03,35,16.20
2013,06,30,03,36,16.20
2013,06,30,03,37,16.20
2013,06,30,03,38,16.20
2013,06,30,03,39,16.20
2013,06,30,03,40,16.20
2013,06,30,03,41,16.20
2013,06,30,03,42,16.20
2013,06,30,03,43,16.10
2013,06,30,03,44,16.10
2013,06,30,03,45,16.10
2013,06,30,03,46,16.10
2013,06,30,03,47,16.10
2013,06,30,03,48,16.10
2013,06,30,03,49,16.00
2013,06,30,03,50,16.00
2013,06,30,03,51,16.00
2013,06,30,03,52,16.00
2013,06,30,03,53,16.00
2013,06,30,03,54,16.00
2013,06,30,03,55,16.00
2013,06,30,03,56,16.00
2013,06,30,03,57,15.90
2013,06,30,03,58,15.90
2013,06,30,03,59,15.90
2013,06,30,04,00,15.90
2013,06,30,04,01,15.90
2013,06,30,04,02,15.90
2013,06,30,04,03,15.90
2013,06,30,04,04,15.90
2013,06,30,04,05,15.90
2013,06,30,04,06,15.90
2013,06,30,04,07,15.90
2013,06,30,04,08,15.90
2013,06,30,04,09,15.80
2013,06,30,04,10,15.80
2013,06,30,04,11,15.80
2013,06,30,04,12,15.80
2013,06,30,04,13,15.80
2013,06,30,04,14,15.80
2013,06,30,04,15,15.80
2013,06,30,04,16,15.80
2013,06,30,04,17,15.80
2013,06,30,04,18,15.80
2013,06,30,04,19,15.80
2013,06,30,04,20,15.70
2013,06,30,04,21,15.70
2013,06,30,04,22,15.70
2013,06,30,04,23,15.70
2013,06,30,04,24,15.70
2013,06,30,04,25,15.70
2013,06,30,04,26,15.70
2013,06,30,04,27,15.70
2013,06,30,04,28,15.70
2013,06,30,04,29,15.70
2013,06,30,04,30,15.70
2013,06,30,04,31,15.70
2013,06,30,04,32,15.60
2013,06,30,04,33,15.60
2013,06,30,04,34,15.60
2013,06,30,04,35,15.60
2013,06,30,04,36,15.60
2013,06,30,04,37,15.60
2013,06,30,04,38,15.60
2013,06,30,04,39,15.60
2013,06,30,04,40,15.60
2013,06,30,04,41,15.60
2013,06,30,04,42,15.50
2013,06,30,04,43,15.50
2013,06,30,04,44,15.50
2013,06,30,04,45,15.50
2013,06,30,04,46,15.40
2013,06,30,04,47,15.40
2013,06,30,04,48,15.40
2013,06,30,04,49,15.40
2013,06,30,04,50,15.40
2013,06,30,04,51,15.40
2013,06,30,04,52,15.30
2013,06,30,04,53,15.30
2013,06,30,04,54,15.30
2013,06,30,04,55,15.30
2013,06,30,04,56,15.30
2013,06,30,04,57,15.30
2013,06,30,04,58,15.30
2013,06,30,04,59,15.30
2013,06,30,05,00,15.30
2013,06,30,05,01,15.20
2013,06,30,05,02,15.20
2013,06,30,05,03,15.20
2013,06,30,05,04,15.20
2013,06,30,05,05,15.20
2013,06,30,05,06,15.20
2013,06,30,05,07,15.20
2013,06,30,05,08,15.20
2013,06,30,05,09,15.20
2013,06,30,05,10,15.20
2013,06,30,05,11,15.20
2013,06,30,05,12,15.20
2013,06,30,05,13,15.20
2013,06,30,05,14,15.20
2013,06,30,05,15,15.10
2013,06,30,05,16,15.10
2013,06,30,05,17,15.10
2013,06,30,05,18,15.10
2013,06,30,05,19,15.10
2013,06,30,05,20,15.10
2013,06,30,05,21,15.10
2013,06,30,05,22,15.10
2013,06,30,05,23,15.10
2013,06,30,05,24,15.10
2013,06,30,05,25,15.10
2013,06,30,05,26,15.10
2013,06,30,05,27,15.10
2013,06,30,05,28,15.10
2013,06,30,05,29,15.10
2013,06,30,05,30,15.10
2013,06,30,05,31,15.10
2013,06,30,05,32,15.00
2013,06,30,05,33,15.10
2013,06,30,05,34,15.10
2013,06,30,05,35,15.10
2013,06,30,05,36,15.10
2013,06,30,05,37,15.10
2013,06,30,05,38,15.10
2013,06,30,05,39,15.10
2013,06,30,05,40,15.10
2013,06,30,05,41,15.10
2013,06,30,05,42,15.10
2013,06,30,05,43,15.10
2013,06,30,05,44,15.10
2013,06,30,05,45,15.10
2013,06,30,05,46,15.10
2013,06,30,05,47,15.10
2013,06,30,05,48,15.10
2013,06,30,05,49,15.10
2013,06,30,05,50,15.10
2013,06,30,05,51,15.10
2013,06,30,05,52,15.10
2013,06,30,05,53,15.10
2013,06,30,05,54,15.10
2013,06,30,05,55,15.20
2013,06,30,05,56,15.20
2013,06,30,05,57,15.20
2013,06,30,05,58,15.20
2013,06,30,05,59,15.20
2013,06,30,06,00,15.20
2013,06,30,06,01,15.30
2013,06,30,06,02,15.30
2013,06,30,06,03,15.30
2013,06,30,06,04,15.30
2013,06,30,06,05,15.30
2013,06,30,06,06,15.30
2013,06,30,06,07,15.40
2013,06,30,06,08,15.40
2013,06,30,06,09,15.40
2013,06,30,06,10,15.40
2013,06,30,06,11,15.40
2013,06,30,06,12,15.50
2013,06,30,06,13,15.50
2013,06,30,06,14,15.50
2013,06,30,06,15,15.60
2013,06,30,06,16,15.60
2013,06,30,06,17,15.70
2013,06,30,06,18,15.70
2013,06,30,06,19,15.80
2013,06,30,06,20,15.80
2013,06,30,06,21,15.80
2013,06,30,06,22,15.90
2013,06,30,06,23,15.90
2013,06,30,06,24,15.90
2013,06,30,06,25,15.90
2013,06,30,06,26,16.00
2013,06,30,06,27,16.00
2013,06,30,06,28,16.10
2013,06,30,06,29,16.10
2013,06,30,06,30,16.10
2013,06,30,06,31,16.10
2013,06,30,06,32,16.10
2013,06,30,06,33,16.10
2013,06,30,06,34,16.10
2013,06,30,06,35,16.10
2013,06,30,06,36,16.20
2013,06,30,06,37,16.20
2013,06,30,06,38,16.20
2013,06,30,06,39,16.30
2013,06,30,06,40,16.30
2013,06,30,06,41,16.30
2013,06,30,06,42,16.30
2013,06,30,06,43,16.40
2013,06,30,06,44,16.40
2013,06,30,06,45,16.50
2013,06,30,06,46,16.50
2013,06,30,06,47,16.60
2013,06,30,06,48,16.60
2013,06,30,06,49,16.60
2013,06,30,06,50,16.70
2013,06,30,06,51,16.70
2013,06,30,06,52,16.70
2013,06,30,06,53,16.80
2013,06,30,06,54,16.80
2013,06,30,06,55,16.90
2013,06,30,06,56,16.90
2013,06,30,06,57,16.90
2013,06,30,06,58,16.90
2013,06,30,06,59,17.00
2013,06,30,07,00,17.00
2013,06,30,07,01,17.10
2013,06,30,07,02,17.20
2013,06,30,07,03,17.20
2013,06,30,07,04,17.30
2013,06,30,07,05,17.40
2013,06,30,07,06,17.50
2013,06,30,07,07,17.50
2013,06,30,07,08,17.60
2013,06,30,07,09,17.60
2013,06,30,07,10,17.70
2013,06,30,07,11,17.70
2013,06,30,07,12,17.80
2013,06,30,07,13,17.80
2013,06,30,07,14,17.90
2013,06,30,07,15,18.00
2013,06,30,07,16,18.10
2013,06,30,07,17,18.10
2013,06,30,07,18,18.20
2013,06,30,07,19,18.30
2013,06,30,07,20,18.30
2013,06,30,07,21,18.40
2013,06,30,07,22,18.40
2013,06,30,07,23,18.50
2013,06,30,07,24,18.50
2013,06,30,07,25,18.50
2013,06,30,07,26,18.60
2013,06,30,07,27,18.60
2013,06,30,07,28,18.50
2013,06,30,07,29,18.50
2013,06,30,07,30,18.50
2013,06,30,07,31,18.40
2013,06,30,07,32,18.40
2013,06,30,07,33,18.40
2013,06,30,07,34,18.40
2013,06,30,07,35,18.40
2013,06,30,07,36,18.40
2013,06,30,07,37,18.40
2013,06,30,07,38,18.40
2013,06,30,07,39,18.40
2013,06,30,07,40,18.40
2013,06,30,07,41,18.40
2013,06,30,07,42,18.40
2013,06,30,07,43,18.40
2013,06,30,07,44,18.40
2013,06,30,07,45,18.40
2013,06,30,07,46,18.40
2013,06,30,07,47,18.40
2013,06,30,07,48,18.40
2013,06,30,07,49,18.40
2013,06,30,07,50,18.40
2013,06,30,07,51,18.40
2013,06,30,07,52,18.40
2013,06,30,07,53,18.50
2013,06,30,07,54,18.50
2013,06,30,07,55,18.50
2013,06,30,07,56,18.50
2013,06,30,07,57,18.60
2013,06,30,07,58,18.60
2013,06,30,07,59,18.60
2013,06,30,08,00,18.60
2013,06,30,08,01,18.70
2013,06,30,08,02,18.70
2013,06,30,08,03,18.80
2013,06,30,08,04,18.80
2013,06,30,08,05,18.80
2013,06,30,08,06,18.90
2013,06,30,08,07,18.90
2013,06,30,08,08,19.00
2013,06,30,08,09,19.10
2013,06,30,08,10,19.10
2013,06,30,08,11,19.10
2013,06,30,08,12,19.20
2013,06,30,08,13,19.20
2013,06,30,08,14,19.20
2013,06,30,08,15,19.30
2013,06,30,08,16,19.30
2013,06,30,08,17,19.40
2013,06,30,08,18,19.40
2013,06,30,08,19,19.50
2013,06,30,08,20,19.50
2013,06,30,08,21,19.60
2013,06,30,08,22,19.70
2013,06,30,08,23,19.80
2013,06,30,08,24,19.90
2013,06,30,08,25,20.00
2013,06,30,08,26,20.00
2013,06,30,08,27,20.10
2013,06,30,08,28,20.20
2013,06,30,08,29,20.20
2013,06,30,08,30,20.30
2013,06,30,08,31,20.40
2013,06,30,08,32,20.40
2013,06,30,08,33,20.40
2013,06,30,08,34,20.50
2013,06,30,08,35,20.50
2013,06,30,08,36,20.60
2013,06,30,08,37,20.60
2013,06,30,08,38,20.70
2013,06,30,08,39,20.70
2013,06,30,08,40,20.80
2013,06,30,08,41,20.80
2013,06,30,08,42,20.90
2013,06,30,08,43,21.00
2013,06,30,08,44,21.00
2013,06,30,08,45,21.10
2013,06,30,08,46,21.10
2013,06,30,08,47,21.20
2013,06,30,08,48,21.20
2013,06,30,08,49,21.20
2013,06,30,08,50,21.30
2013,06,30,08,51,21.30
2013,06,30,08,52,21.30
2013,06,30,08,53,21.40
2013,06,30,08,54,21.40
2013,06,30,08,55,21.40
2013,06,30,08,56,21.40
2013,06,30,08,57,21.40
2013,06,30,08,58,21.40
2013,06,30,08,59,21.50
2013,06,30,09,00,21.50
2013,06,30,09,01,21.60
2013,06,30,09,02,21.60
2013,06,30,09,03,21.70
2013,06,30,09,04,21.70
2013,06,30,09,05,21.80
2013,06,30,09,06,21.80
2013,06,30,09,07,21.80
2013,06,30,09,08,21.80
2013,06,30,09,09,21.80
2013,06,30,09,10,21.80
2013,06,30,09,11,21.80
2013,06,30,09,12,21.80
2013,06,30,09,13,21.80
2013,06,30,09,14,21.80
2013,06,30,09,15,21.90
2013,06,30,09,16,21.90
2013,06,30,09,17,21.90
2013,06,30,09,18,22.00
2013,06,30,09,19,22.00
2013,06,30,09,20,22.10
2013,06,30,09,21,22.10
2013,06,30,09,22,22.10
2013,06,30,09,23,22.00
2013,06,30,09,24,22.00
2013,06,30,09,25,22.00
2013,06,30,09,26,22.00
2013,06,30,09,27,22.00
2013,06,30,09,28,22.00
2013,06,30,09,29,22.10
2013,06,30,09,30,22.10
2013,06,30,09,31,22.10
2013,06,30,09,32,22.10
2013,06,30,09,33,22.10
2013,06,30,09,34,22.10
2013,06,30,09,35,22.10
2013,06,30,09,36,22.10
2013,06,30,09,37,22.10
2013,06,30,09,38,22.10
2013,06,30,09,39,22.10
2013,06,30,09,40,22.00
2013,06,30,09,41,22.00
2013,06,30,09,42,21.90
2013,06,30,09,43,21.90
2013,06,30,09,44,21.80
2013,06,30,09,45,21.80
2013,06,30,09,46,21.80
2013,06,30,09,47,21.80
2013,06,30,09,48,21.80
2013,06,30,09,49,21.80
2013,06,30,09,50,21.80
2013,06,30,09,51,21.80
2013,06,30,09,52,21.80
2013,06,30,09,53,21.80
2013,06,30,09,54,21.80
2013,06,30,09,55,21.80
2013,06,30,09,56,21.90
2013,06,30,09,57,21.90
2013,06,30,09,58,22.00
2013,06,30,09,59,22.10
2013,06,30,10,00,22.10
2013,06,30,10,01,22.10
2013,06,30,10,02,22.10
2013,06,30,10,03,22.00
2013,06,30,10,04,21.90
2013,06,30,10,05,21.90
2013,06,30,10,06,21.80
2013,06,30,10,07,21.70
2013,06,30,10,08,21.70
2013,06,30,10,09,21.70
2013,06,30,10,10,21.70
2013,06,30,10,11,21.70
2013,06,30,10,12,21.80
2013,06,30,10,13,21.80
2013,06,30,10,14,21.90
2013,06,30,10,15,22.00
2013,06,30,10,16,22.00
2013,06,30,10,17,22.10
2013,06,30,10,18,22.10
2013,06,30,10,19,22.10
2013,06,30,10,20,22.10
2013,06,30,10,21,22.10
2013,06,30,10,22,22.10
2013,06,30,10,23,22.10
2013,06,30,10,24,22.20
2013,06,30,10,25,22.20
2013,06,30,10,26,22.30
2013,06,30,10,27,22.30
2013,06,30,10,28,22.40
2013,06,30,10,29,22.40
2013,06,30,10,30,22.40
2013,06,30,10,31,22.40
2013,06,30,10,32,22.40
2013,06,30,10,33,22.40
2013,06,30,10,34,22.40
2013,06,30,10,35,22.40
2013,06,30,10,36,22.40
2013,06,30,10,37,22.40
2013,06,30,10,38,22.50
2013,06,30,10,39,22.60
2013,06,30,10,40,22.60
2013,06,30,10,41,22.70
2013,06,30,10,42,22.70
2013,06,30,10,43,22.80
2013,06,30,10,44,22.80
2013,06,30,10,45,22.90
2013,06,30,10,46,22.90
2013,06,30,10,47,22.90
2013,06,30,10,48,22.90
2013,06,30,10,49,22.90
2013,06,30,10,50,22.80
2013,06,30,10,51,22.70
2013,06,30,10,52,22.60
2013,06,30,10,53,22.40
2013,06,30,10,54,22.30
2013,06,30,10,55,22.30
2013,06,30,10,56,22.30
2013,06,30,10,57,22.20
2013,06,30,10,58,22.20
2013,06,30,10,59,22.30
2013,06,30,11,00,22.40
2013,06,30,11,01,22.50
2013,06,30,11,02,22.60
2013,06,30,11,03,22.60
2013,06,30,11,04,22.70
2013,06,30,11,05,22.80
2013,06,30,11,06,22.80
2013,06,30,11,07,22.90
2013,06,30,11,08,22.90
2013,06,30,11,09,22.90
2013,06,30,11,10,22.80
2013,06,30,11,11,22.80
2013,06,30,11,12,22.70
2013,06,30,11,13,22.70
2013,06,30,11,14,22.70
2013,06,30,11,15,22.70
2013,06,30,11,16,22.70
2013,06,30,11,17,22.70
2013,06,30,11,18,22.70
2013,06,30,11,19,22.70
2013,06,30,11,20,22.60
2013,06,30,11,21,22.50
2013,06,30,11,22,22.50
2013,06,30,11,23,22.50
2013,06,30,11,24,22.50
2013,06,30,11,25,22.60
2013,06,30,11,26,22.70
2013,06,30,11,27,22.80
2013,06,30,11,28,22.90
2013,06,30,11,29,22.90
2013,06,30,11,30,22.90
2013,06,30,11,31,22.90
2013,06,30,11,32,23.00
2013,06,30,11,33,22.90
2013,06,30,11,34,22.90
2013,06,30,11,35,22.90
2013,06,30,11,36,22.90
2013,06,30,11,37,23.00
2013,06,30,11,38,23.00
2013,06,30,11,39,23.10
2013,06,30,11,40,23.20
2013,06,30,11,41,23.30
2013,06,30,11,42,23.30
2013,06,30,11,43,23.30
2013,06,30,11,44,23.30
2013,06,30,11,45,23.40
2013,06,30,11,46,23.50
2013,06,30,11,47,23.60
2013,06,30,11,48,23.70
2013,06,30,11,49,23.80
2013,06,30,11,50,23.90
2013,06,30,11,51,23.90
2013,06,30,11,52,23.90
2013,06,30,11,53,23.80
2013,06,30,11,54,23.70
2013,06,30,11,55,23.70
2013,06,30,11,56,23.70
2013,06,30,11,57,23.70
2013,06,30,11,58,23.80
2013,06,30,11,59,23.90
2013,06,30,12,00,24.00
2013,06,30,12,01,24.10
2013,06,30,12,02,24.10
2013,06,30,12,03,24.20
2013,06,30,12,04,24.30
2013,06,30,12,05,24.30
2013,06,30,12,06,24.40
2013,06,30,12,07,24.40
2013,06,30,12,08,24.50
2013,06,30,12,09,24.50
2013,06,30,12,10,24.60
2013,06,30,12,11,24.60
2013,06,30,12,12,24.70
2013,06,30,12,13,24.80
2013,06,30,12,14,24.80
2013,06,30,12,15,24.90
2013,06,30,12,16,24.90
2013,06,30,12,17,25.00
2013,06,30,12,18,25.10
2013,06,30,12,19,25.10
2013,06,30,12,20,25.20
2013,06,30,12,21,25.20
2013,06,30,12,22,25.10
2013,06,30,12,23,25.10
2013,06,30,12,24,25.10
2013,06,30,12,25,25.10
2013,06,30,12,26,25.10
2013,06,30,12,27,25.10
2013,06,30,12,28,25.10
2013,06,30,12,29,25.20
2013,06,30,12,30,25.20
2013,06,30,12,31,25.30
2013,06,30,12,32,25.30
2013,06,30,12,33,25.40
2013,06,30,12,34,25.40
2013,06,30,12,35,25.40
2013,06,30,12,36,25.30
2013,06,30,12,37,25.30
2013,06,30,12,38,25.20
2013,06,30,12,39,25.00
2013,06,30,12,40,24.90
2013,06,30,12,41,24.80
2013,06,30,12,42,24.70
2013,06,30,12,43,24.60
2013,06,30,12,44,24.50
2013,06,30,12,45,24.50
2013,06,30,12,46,24.40
2013,06,30,12,47,24.40
2013,06,30,12,48,24.40
2013,06,30,12,49,24.40
2013,06,30,12,50,24.40
2013,06,30,12,51,24.40
2013,06,30,12,52,24.30
2013,06,30,12,53,24.20
2013,06,30,12,54,24.20
2013,06,30,12,55,24.20
2013,06,30,12,56,24.20
2013,06,30,12,57,24.20
2013,06,30,12,58,24.10
2013,06,30,12,59,24.10
2013,06,30,13,00,24.10
2013,06,30,13,01,24.00
2013,06,30,13,02,24.00
2013,06,30,13,03,24.00
2013,06,30,13,04,23.90
2013,06,30,13,05,24.00
2013,06,30,13,06,24.00
2013,06,30,13,07,24.10
2013,06,30,13,08,24.20
2013,06,30,13,09,24.30
2013,06,30,13,10,24.50
2013,06,30,13,11,24.50
2013,06,30,13,12,24.60
2013,06,30,13,13,24.60
2013,06,30,13,14,24.70
2013,06,30,13,15,24.80
2013,06,30,13,16,24.80
2013,06,30,13,17,24.90
2013,06,30,13,18,25.00
2013,06,30,13,19,25.00
2013,06,30,13,20,25.10
2013,06,30,13,21,25.10
2013,06,30,13,22,25.10
2013,06,30,13,23,25.10
2013,06,30,13,24,25.00
2013,06,30,13,25,25.00
2013,06,30,13,26,25.00
2013,06,30,13,27,25.10
2013,06,30,13,28,25.20
2013,06,30,13,29,25.30
2013,06,30,13,30,25.40
2013,06,30,13,31,25.50
2013,06,30,13,32,25.60
2013,06,30,13,33,25.70
2013,06,30,13,34,25.80
2013,06,30,13,35,25.80
2013,06,30,13,36,25.80
2013,06,30,13,37,25.80
2013,06,30,13,38,25.80
2013,06,30,13,39,25.80
2013,06,30,13,40,25.90
2013,06,30,13,41,25.90
2013,06,30,13,42,25.90
2013,06,30,13,43,26.00
2013,06,30,13,44,26.10
2013,06,30,13,45,26.10
2013,06,30,13,46,26.10
2013,06,30,13,47,26.10
2013,06,30,13,48,26.20
2013,06,30,13,49,26.30
2013,06,30,13,50,26.40
2013,06,30,13,51,26.50
2013,06,30,13,52,26.60
2013,06,30,13,53,26.60
2013,06,30,13,54,26.70
2013,06,30,13,55,26.80
2013,06,30,13,56,26.80
2013,06,30,13,57,26.80
2013,06,30,13,58,26.90
2013,06,30,13,59,27.00
2013,06,30,14,00,27.10
2013,06,30,14,01,27.20
2013,06,30,14,02,27.20
2013,06,30,14,03,27.30
2013,06,30,14,04,27.30
2013,06,30,14,05,27.30
2013,06,30,14,06,27.30
2013,06,30,14,07,27.30
2013,06,30,14,08,27.30
2013,06,30,14,09,27.30
2013,06,30,14,10,27.30
2013,06,30,14,11,27.30
2013,06,30,14,12,27.20
2013,06,30,14,13,27.00
2013,06,30,14,14,26.90
2013,06,30,14,15,26.80
2013,06,30,14,16,26.80
2013,06,30,14,17,26.80
2013,06,30,14,18,26.70
2013,06,30,14,19,26.60
2013,06,30,14,20,26.60
2013,06,30,14,21,26.60
2013,06,30,14,22,26.40
2013,06,30,14,23,26.30
2013,06,30,14,24,26.30
2013,06,30,14,25,26.40
2013,06,30,14,26,26.40
2013,06,30,14,27,26.50
2013,06,30,14,28,26.50
2013,06,30,14,29,26.50
2013,06,30,14,30,26.40
2013,06,30,14,31,26.40
2013,06,30,14,32,26.40
2013,06,30,14,33,26.50
2013,06,30,14,34,26.60
2013,06,30,14,35,26.70
2013,06,30,14,36,26.80
2013,06,30,14,37,26.90
2013,06,30,14,38,27.00
2013,06,30,14,39,27.10
2013,06,30,14,40,27.30
2013,06,30,14,41,27.40
2013,06,30,14,42,27.30
2013,06,30,14,43,27.30
2013,06,30,14,44,27.10
2013,06,30,14,45,27.00
2013,06,30,14,46,27.00
2013,06,30,14,47,27.00
2013,06,30,14,48,27.00
2013,06,30,14,49,27.10
2013,06,30,14,50,27.10
2013,06,30,14,51,27.20
2013,06,30,14,52,27.30
2013,06,30,14,53,27.40
2013,06,30,14,54,27.40
2013,06,30,14,55,27.20
2013,06,30,14,56,27.10
2013,06,30,14,57,26.90
2013,06,30,14,58,26.90
2013,06,30,14,59,26.80
2013,06,30,15,00,26.80
2013,06,30,15,01,26.80
2013,06,30,15,02,26.90
2013,06,30,15,03,26.90
2013,06,30,15,04,27.00
2013,06,30,15,05,27.10
2013,06,30,15,06,27.20
2013,06,30,15,07,27.20
2013,06,30,15,08,27.30
2013,06,30,15,09,27.30
2013,06,30,15,10,27.30
2013,06,30,15,11,27.20
2013,06,30,15,12,27.20
2013,06,30,15,13,27.20
2013,06,30,15,14,27.30
2013,06,30,15,15,27.30
2013,06,30,15,16,27.40
2013,06,30,15,17,27.50
2013,06,30,15,18,27.50
2013,06,30,15,19,27.60
2013,06,30,15,20,27.60
2013,06,30,15,21,27.60
2013,06,30,15,22,27.60
2013,06,30,15,23,27.60
2013,06,30,15,24,27.60
2013,06,30,15,25,27.70
2013,06,30,15,26,27.70
2013,06,30,15,27,27.70
2013,06,30,15,28,27.70
2013,06,30,15,29,27.60
2013,06,30,15,30,27.50
2013,06,30,15,31,27.30
2013,06,30,15,32,27.10
2013,06,30,15,33,26.90
2013,06,30,15,34,26.70
2013,06,30,15,35,26.60
2013,06,30,15,36,26.40
2013,06,30,15,37,26.40
2013,06,30,15,38,26.30
2013,06,30,15,39,26.30
2013,06,30,15,40,26.30
2013,06,30,15,41,26.30
2013,06,30,15,42,26.30
2013,06,30,15,43,26.30
2013,06,30,15,44,26.40
2013,06,30,15,45,26.40
2013,06,30,15,46,26.40
2013,06,30,15,47,26.30
2013,06,30,15,48,26.30
2013,06,30,15,49,26.40
2013,06,30,15,50,26.40
2013,06,30,15,51,26.50
2013,06,30,15,52,26.50
2013,06,30,15,53,26.60
2013,06,30,15,54,26.60
2013,06,30,15,55,26.70
2013,06,30,15,56,26.80
2013,06,30,15,57,26.80
2013,06,30,15,58,26.80
2013,06,30,15,59,26.80
2013,06,30,16,00,26.80
2013,06,30,16,01,26.80
2013,06,30,16,02,26.80
2013,06,30,16,03,26.70
2013,06,30,16,04,26.70
2013,06,30,16,05,26.80
2013,06,30,16,06,26.80
2013,06,30,16,07,27.00
2013,06,30,16,08,27.10
2013,06,30,16,09,27.30
2013,06,30,16,10,27.40
2013,06,30,16,11,27.50
2013,06,30,16,12,27.60
2013,06,30,16,13,27.70
2013,06,30,16,14,27.70
2013,06,30,16,15,27.50
2013,06,30,16,16,27.30
2013,06,30,16,17,27.20
2013,06,30,16,18,27.10
2013,06,30,16,19,27.10
2013,06,30,16,20,27.10
2013,06,30,16,21,27.10
2013,06,30,16,22,27.20
2013,06,30,16,23,27.20
2013,06,30,16,24,27.30
2013,06,30,16,25,27.30
2013,06,30,16,26,27.40
2013,06,30,16,27,27.40
2013,06,30,16,28,27.50
2013,06,30,16,29,27.50
2013,06,30,16,30,27.60
2013,06,30,16,31,27.70
2013,06,30,16,32,27.70
2013,06,30,16,33,27.80
2013,06,30,16,34,27.80
2013,06,30,16,35,27.80
2013,06,30,16,36,27.90
2013,06,30,16,37,27.90
2013,06,30,16,38,28.00
2013,06,30,16,39,28.10
2013,06,30,16,40,28.20
2013,06,30,16,41,28.30
2013,06,30,16,42,28.30
2013,06,30,16,43,28.40
2013,06,30,16,44,28.40
2013,06,30,16,45,28.40
2013,06,30,16,46,28.40
2013,06,30,16,47,28.40
2013,06,30,16,48,28.40
2013,06,30,16,49,28.40
2013,06,30,16,50,28.40
2013,06,30,16,51,28.50
2013,06,30,16,52,28.50
2013,06,30,16,53,28.50
2013,06,30,16,54,28.50
2013,06,30,16,55,28.50
2013,06,30,16,56,28.60
2013,06,30,16,57,28.60
2013,06,30,16,58,28.70
2013,06,30,16,59,28.80
2013,06,30,17,00,28.80
2013,06,30,17,01,28.90
2013,06,30,17,02,29.00
2013,06,30,17,03,29.00
2013,06,30,17,04,29.00
2013,06,30,17,05,28.90
2013,06,30,17,06,28.80
2013,06,30,17,07,28.70
2013,06,30,17,08,28.60
2013,06,30,17,09,28.60
2013,06,30,17,10,28.60
2013,06,30,17,11,28.70
2013,06,30,17,12,28.70
2013,06,30,17,13,28.60
2013,06,30,17,14,28.60
2013,06,30,17,15,28.70
2013,06,30,17,16,28.70
2013,06,30,17,17,28.70
2013,06,30,17,18,28.70
2013,06,30,17,19,28.70